Tracking 26303 objects as of 1-Dec-2022
HD Live streaming from Space Station
objects crossing your sky now

CZ-4C DEB

Track CZ-4C DEB now!
10-day predictions


NORAD ID: 43410
Int'l Code: 2013-052E
Perigee: 808.9 km
Apogee: 1,171.0 km
Inclination: 98.8 °
Period: 104.8 minutes
Semi major axis: 7360 km
RCS: Unknown
Launch date: September 23, 2013
Source: People's Republic of China (PRC)
Launch site: Taiyaun Space Center, China (TSC)

Note: This is SATELLITE DEBRIS
aabbcc
Your satellite tracking list
Your tracking list is empty




NASA's NSSDC Master Catalog

Two Line Element Set (TLE):
1 43410U 13052E   22335.43154695  .00000205  00000-0  20894-3 0  9998
2 43410  98.8029 198.9412 0245912 263.5937  93.7160 13.74685402452661
Source of the keplerian elements: AFSPC